Location: Newark
(46.7000°N, 60.6000°W)
Time: 04:51:55
(UTC+00:00)

Transit 2A Rocket - Pass Details

Date: 29 October 2020
Orbit: 588 x 914 km, 66.7° (Epoch: 27 November)

Event Time Altitude Azimuth Distance (km) Brightness Sun altitude
Rises 11:41:31 0° 156° (SSE) 3,533 9.4 8.6°
Reaches altitude 10° 11:45:21 10° 132° (SE) 2,597 10.1 9.1°
Maximum altitude 11:48:18 14° 103° (ESE) 2,308 9.2 9.6°
Drops below altitude 10° 11:51:14 10° 73° (ENE) 2,570 8.4 10.0°
Sets 11:54:57 0° 50° (NE) 3,472 8.6 10.5°
